カタログに戻る

LES 2 AKM

運用中HEO
NORAD 2529·ROCKET BODY·🇺🇸 United States

打ち上げ May 6, 1965 から Cape Canaveral Space Force Station

Loading…

次のパス (今後24時間)

TLE

最新Source: Space-Track

元期: Sep 11, 2026, 11:28 UTC

1 02529U 65034D   26254.47793271 -.00000052  00000-0  00000-0 0  9993
2 02529  32.1993 333.7947 3965851 126.8938 276.4061  4.64839200 24511

AllMySatでLES 2 AKMをリアルタイム追跡

Download on the App Store